Weather History for Alexandria, LA

Change the Weather History Date:

Sunday, February 17, 2013

  Actual Average Record
Temperature  
Mean Temperature 49 °F 52 °F  
Max Temperature 66 °F 63 °F 82 °F (1911)
Min Temperature 31 °F 41 °F 19 °F (1903)
Degree Days  
Heating Degree Days 16 13  
Month to date heating degree days 202 246  
Since 1 July heating degree days 1310 1537  
Moisture  
Dew Point 36 °F    
Average Humidity 70    
Maximum Humidity 100    
Minimum Humidity 40    
Precipitation  
Precipitation 0.00 in 0.17 in 4.10 in (1910)
Month to date precipitation 3.41 2.66  
Year to date precipitation 14.46 7.88  
Snow  
Snow 0.00 in - 0.00 in ()
Month to date snowfall 0.0  
Since 1 July snowfall 0.0  
Snow Depth 0.00 in    
Sea Level Pressure  
Sea Level Pressure 30.23 in    
Wind  
Wind Speed 8 mph (SSE)    
Max Wind Speed 17 mph    
Max Gust Speed 22 mph    
Visibility 8 miles    
Events      
T = Trace of Precipitation, MM = Missing Value Source: NWS Daily Summary

Daily Weather History Graph

Daily Weather History Graph

Search for Another Location

Airport:

Trip Planner

Search our weather history database for the weather conditions in past years. The results will help you decide how hot, cold, wet, or windy it might be!

Date:

Astronomy

Feb. 17, 2013 Rise Set
Actual Time 6:49 AM CST 5:59 PM CST
Civil Twilight 6:24 AM CST 6:24 PM CST
Nautical Twilight 5:56 AM CST 6:52 PM CST
Astronomical Twilight 5:28 AM CST 7:20 PM CST
Moon 11:12 AM CST (2/17) 12:26 AM CST (2/17)
Length of Visible Light 11h 59m
Length of Day
11h 09m
Waxing Crescent, 49% of the Moon is Illuminated
Feb 17
Waxing Crescent
Feb 17
First Quarter
Feb 25
Full
Mar 4
Last Quarter
Mar 11
New

Hourly Weather History & Observations

Time (CST) Temp. Windchill Dew Point Humidity Pressure Visibility Wind Dir Wind Speed Gust Speed Precip Events Conditions
12:53 AM 33.1 °F - 30.0 °F 89% 30.28 in 10.0 mi Calm Calm - N/A   Clear
1:53 AM 34.0 °F - 30.0 °F 85% 30.28 in 9.0 mi Calm Calm - N/A   Clear
2:51 AM 32.0 °F 28.7 °F 30.2 °F 93% 30.26 in 2.0 mi SE 3.5 mph - N/A   Clear
2:53 AM 32.0 °F 27.5 °F 30.0 °F 92% 30.28 in 2.0 mi SE 4.6 mph - N/A   Clear
3:00 AM 32.0 °F 27.5 °F 30.2 °F 93% 30.26 in 1.5 mi SE 4.6 mph - N/A   Clear
3:53 AM 30.9 °F 26.2 °F 30.0 °F 96% 30.27 in 5.0 mi SE 4.6 mph - N/A   Clear
4:53 AM 30.9 °F - 30.0 °F 96% 30.27 in 5.0 mi Calm Calm - N/A   Clear
5:00 AM 33.8 °F 30.8 °F 30.2 °F 87% 30.26 in 2.5 mi East 3.5 mph - N/A   Clear
5:53 AM 32.0 °F 26.4 °F 28.9 °F 88% 30.29 in 8.0 mi SE 5.8 mph - N/A   Clear
6:53 AM 32.0 °F 24.8 °F 28.0 °F 85% 30.30 in 7.0 mi SE 8.1 mph - N/A   Clear
7:53 AM 37.0 °F 29.3 °F 30.0 °F 76% 30.30 in 10.0 mi SE 11.5 mph - N/A   Clear
8:53 AM 43.0 °F 36.8 °F 30.9 °F 62% 30.31 in 10.0 mi SE 11.5 mph - N/A   Clear
9:53 AM 48.0 °F - 32.0 °F 54% 30.30 in 10.0 mi SE 11.5 mph - N/A   Clear
10:53 AM 54.0 °F - 35.1 °F 49% 30.29 in 10.0 mi SE 11.5 mph - N/A   Clear
11:53 AM 60.1 °F - 37.9 °F 44% 30.25 in 10.0 mi South 10.4 mph - N/A   Clear
12:39 PM 62.6 °F - 39.2 °F 42% 30.21 in 4.0 mi South 13.8 mph 18.4 mph N/A   Haze
12:53 PM 62.1 °F - 39.0 °F 43% 30.22 in 5.0 mi South 6.9 mph - N/A   Haze
1:11 PM 64.4 °F - 41.0 °F 42% 30.19 in 6.0 mi South 8.1 mph - N/A   Haze
1:53 PM 64.9 °F - 41.0 °F 42% 30.18 in 9.0 mi South 12.7 mph - N/A   Clear
2:53 PM 66.0 °F - 41.0 °F 40% 30.16 in 10.0 mi South 12.7 mph 20.7 mph N/A   Clear
3:53 PM 64.9 °F - 44.1 °F 47% 30.14 in 10.0 mi South 9.2 mph 19.6 mph N/A   Clear
4:53 PM 64.9 °F - 43.0 °F 45% 30.14 in 8.0 mi South 11.5 mph - N/A   Partly Cloudy
5:53 PM 61.0 °F - 44.1 °F 54% 30.14 in 10.0 mi South 12.7 mph 20.7 mph N/A   Clear
6:53 PM 59.0 °F - 43.0 °F 55% 30.15 in 10.0 mi South 8.1 mph - N/A   Clear
7:53 PM 57.0 °F - 43.0 °F 59% 30.15 in 10.0 mi South 8.1 mph - N/A   Clear
8:53 PM 53.1 °F - 43.0 °F 69% 30.17 in 10.0 mi SSE 6.9 mph - N/A   Clear
9:53 PM 50.0 °F - 44.1 °F 80% 30.17 in 10.0 mi SSE 6.9 mph - N/A   Clear
11:53 PM 48.9 °F - 43.0 °F 80% 30.16 in 10.0 mi SSE 5.8 mph - N/A   Clear